Weather in Galbshtadt

Russia / Altai Krai     53°13′36″N   78°59′29″E
temp.,
°C
wind,
m/s
gust,
m/s
humid.,
%
clouds,
%
prec.,
mm/h
press.,
hPa
HPBL,
m
10 may, mon
mon1001:00+11ene9154296 0.0 1017626
04:00+9e81547100 0.0 1017669
07:00+8e81549100 0.0 1018696
10:00+11e101443100 0.0 1018952
13:00+15e81133100 0.0 10181553
16:00+18ene91029100 0.0 10161983
19:00+17ne8103152 0.0 10161986
22:00+13ne71443100 0.0 1017569
11 may, tue
tue1101:00+11nne61349100 0.0 1017432
04:00+9nne613595 0.0 1017395
07:00+8nne612645 0.0 1018362
10:00+12nne67524 0.0 1019767
13:00+14nne774699 0.0 10191457
16:00+16nne663598 0.0 10192161
19:00+15nne79406 0.0 10201717
22:00+13n6114676 0.0 1021474
12 may, wed
wed1201:00+11n513565 0.0 1022417
04:00+9n510664 0.0 1022235
07:00+8nnw510720 0.0 1023300
10:00+13n67520 0.0 1023870
13:00+17nnw553398 0.0 10221865
16:00+18nnw4627100 0.0 10212263
19:00+19nnw4625100 0.0 10202362
22:00+15nne3433100 0.0 102071
13 may, thu
thu1301:00+14sw1138100 0.0 101929
04:00+12sse4767100 1.2 1018330
07:00+11wnw0176100 1.8 101893
10:00+11n2481100 2.2 1017529
13:00+12nne457197 2.7 1018891
16:00+14nne566499 0.4 10181083
19:00+15nnw655788 0.6 10191270
22:00+12nw476777 0.0 1020148
14 may, fri
fri1401:00+10nw467161 0.0 1019121
04:00+9nw3575100 0.0 101986
07:00+9wnw365765 0.0 1019124
10:00+12nw495799 0.0 1019401
13:00+17nnw794799 0.0 10201662
16:00+18n783695 0.0 10211676
19:00+17n6731100 0.0 10221384
22:00+12nnw3342100 0.0 102452